Weather History for Mammoth, CA

Change the Weather History Date:

Friday, November 8, 2013

  Actual Average Record
Temperature  
Mean Temperature 42 °F -  
Max Temperature 66 °F 45 °F 66 °F (2013)
Min Temperature 17 °F 31 °F 3 °F (2011)
Degree Days  
Heating Degree Days 24    
Moisture  
Dew Point 14 °F    
Average Humidity 39    
Maximum Humidity 68    
Minimum Humidity 13    
Precipitation  
Precipitation 0.00 in - - ()
Sea Level Pressure  
Sea Level Pressure 30.19 in    
Wind  
Wind Speed 3 mph (West)    
Max Wind Speed 15 mph    
Max Gust Speed 23 mph    
Visibility 10 miles    
Events      
Averages and records for this station are not official NWS values.
T = Trace of Precipitation, MM = Missing Value Source: NWS Daily Summary

Daily Weather History Graph

Daily Weather History Graph

Search for Another Location

Airport:

Trip Planner

Search our weather history database for the weather conditions in past years. The results will help you decide how hot, cold, wet, or windy it might be!

Date:

Astronomy

Nov. 08, 2013 Rise Set
Actual Time 6:28 AM PST 4:49 PM PST
Civil Twilight 6:00 AM PST 5:17 PM PST
Nautical Twilight 5:29 AM PST 5:48 PM PST
Astronomical Twilight 4:58 AM PST 6:19 PM PST
Moon 11:27 AM PST (11/8) 10:15 PM PST (11/8)
Length of Visible Light 11h 16m
Length of Day
10h 21m
Waxing Crescent, 34% of the Moon is Illuminated
Nov 8
Waxing Crescent
Nov 9
First Quarter
Nov 17
Full
Nov 25
Last Quarter
Dec 2
New

Hourly Weather History & Observations

Time (PST) Temp. Windchill Dew Point Humidity Pressure Visibility Wind Dir Wind Speed Gust Speed Precip Events Conditions
12:15 AM 26.6 °F - 12.2 °F 55% 30.25 in 10.0 mi Calm Calm - N/A   Clear
12:35 AM 24.8 °F 20.5 °F 10.4 °F 54% 30.25 in 10.0 mi NNW 3.5 mph - N/A   Clear
12:55 AM 24.8 °F 20.5 °F 12.2 °F 59% 30.25 in 10.0 mi NW 3.5 mph - N/A   Clear
1:15 AM 26.6 °F - 12.2 °F 55% 30.24 in 10.0 mi Calm Calm - N/A   Clear
1:35 AM 30.2 °F - 12.2 °F 47% 30.23 in 10.0 mi Calm Calm - N/A   Clear
1:55 AM 24.8 °F - 10.4 °F 54% 30.23 in 10.0 mi Calm Calm - N/A   Clear
2:15 AM 23.0 °F 17.0 °F 8.6 °F 54% 30.24 in 10.0 mi West 4.6 mph - N/A   Clear
2:35 AM 23.0 °F - 10.4 °F 59% 30.23 in 10.0 mi Calm Calm - N/A   Clear
2:55 AM 23.0 °F 15.8 °F 10.4 °F 59% 30.23 in 10.0 mi NNW 5.8 mph - N/A   Clear
3:15 AM 19.4 °F - 10.4 °F 68% 30.23 in 10.0 mi North - - N/A   Clear
3:35 AM 21.2 °F - 10.4 °F 63% 30.23 in 10.0 mi Calm Calm - N/A   Clear
3:55 AM 24.8 °F 19.1 °F 12.2 °F 59% 30.22 in 10.0 mi North 4.6 mph - N/A   Clear
4:15 AM 23.0 °F - 10.4 °F 59% 30.22 in 10.0 mi Calm Calm - N/A   Clear
4:35 AM 21.2 °F - 10.4 °F 63% 30.21 in 10.0 mi North - - N/A   Clear
4:55 AM 21.2 °F - 10.4 °F 63% 30.21 in 10.0 mi North - - N/A   Clear
5:15 AM 21.2 °F - 10.4 °F 63% 30.21 in 10.0 mi Calm Calm - N/A   Clear
5:35 AM 19.4 °F - 10.4 °F 68% 30.21 in 10.0 mi Calm Calm - N/A   Clear
5:55 AM 17.6 °F 10.7 °F 8.6 °F 68% 30.21 in 10.0 mi North 4.6 mph - N/A   Clear
6:15 AM 19.4 °F 14.3 °F 10.4 °F 68% 30.21 in 10.0 mi North 3.5 mph - N/A   Clear
6:35 AM 23.0 °F - 12.2 °F 63% 30.21 in 10.0 mi Calm Calm - N/A   Clear
6:55 AM 21.2 °F 13.6 °F 12.2 °F 68% 30.21 in 10.0 mi NNW 5.8 mph - N/A   Clear
7:15 AM 26.6 °F - 14.0 °F 59% 30.21 in 10.0 mi Calm Calm - N/A   Clear
7:35 AM 32.0 °F 27.5 °F 14.0 °F 48% 30.22 in 10.0 mi SE 4.6 mph - N/A   Clear
7:55 AM 33.8 °F 30.8 °F 15.8 °F 48% 30.22 in 10.0 mi SE 3.5 mph - N/A   Clear
8:15 AM 37.4 °F - 15.8 °F 41% 30.22 in 10.0 mi Calm Calm - N/A   Clear
8:35 AM 42.8 °F 41.1 °F 15.8 °F 34% 30.23 in 10.0 mi WNW 3.5 mph - N/A   Clear
8:55 AM 48.2 °F - 14.0 °F 25% 30.22 in 10.0 mi Calm Calm - N/A   Clear
9:15 AM 51.8 °F - 14.0 °F 22% 30.22 in 10.0 mi Calm Calm - N/A   Clear
9:35 AM 53.6 °F - 19.4 °F 26% 30.22 in 10.0 mi SE 4.6 mph - N/A   Clear
9:55 AM 57.2 °F - 19.4 °F 23% 30.21 in 10.0 mi SE 5.8 mph - N/A   Clear
10:15 AM 59.0 °F - 14.0 °F 17% 30.21 in 10.0 mi SE 5.8 mph - N/A   Clear
10:35 AM 59.0 °F - 14.0 °F 17% 30.20 in 10.0 mi ESE 8.1 mph - N/A   Clear
10:55 AM 60.8 °F - 14.0 °F 16% 30.20 in 10.0 mi ESE 5.8 mph - N/A   Clear
11:15 AM 62.6 °F - 14.0 °F 15% 30.19 in 10.0 mi ESE 4.6 mph - N/A   Clear
11:35 AM 64.4 °F - 14.0 °F 14% 30.18 in 10.0 mi ESE 9.2 mph - N/A   Clear
11:55 AM 64.4 °F - 14.0 °F 14% 30.17 in 10.0 mi South 3.5 mph - N/A   Clear
12:15 PM 64.4 °F - 12.2 °F 13% 30.16 in 10.0 mi West 9.2 mph 18.4 mph N/A   Clear
12:35 PM 66.2 °F - 14.0 °F 13% 30.15 in 10.0 mi West 11.5 mph 19.6 mph N/A   Clear
12:55 PM 64.4 °F - 14.0 °F 14% 30.14 in 10.0 mi West 11.5 mph 21.9 mph N/A   Clear
1:15 PM 64.4 °F - 14.0 °F 14% 30.14 in 10.0 mi West 15.0 mph 23.0 mph N/A   Clear
1:35 PM 64.4 °F - 14.0 °F 14% 30.13 in 10.0 mi West 11.5 mph 19.6 mph N/A   Clear
1:55 PM 64.4 °F - 14.0 °F 14% 30.13 in 10.0 mi West 8.1 mph 16.1 mph N/A   Clear
2:15 PM 64.4 °F - 14.0 °F 14% 30.13 in 10.0 mi Calm Calm - N/A   Clear
2:35 PM 64.4 °F - 14.0 °F 14% 30.13 in 10.0 mi WSW 11.5 mph 16.1 mph N/A   Clear
2:55 PM 64.4 °F - 15.8 °F 15% 30.13 in 10.0 mi West 8.1 mph 19.6 mph N/A   Clear
3:15 PM 62.6 °F - 15.8 °F 16% 30.13 in 10.0 mi WSW 15.0 mph 21.9 mph N/A   Clear
3:35 PM 62.6 °F - 15.8 °F 16% 30.13 in 10.0 mi WSW 12.7 mph 18.4 mph N/A   Clear
3:55 PM 60.8 °F - 15.8 °F 17% 30.13 in 10.0 mi WSW 10.4 mph 16.1 mph N/A   Clear
4:15 PM 57.2 °F - 17.6 °F 21% 30.13 in 10.0 mi West 8.1 mph - N/A   Clear
4:35 PM 53.6 °F - 17.6 °F 24% 30.13 in 10.0 mi West 8.1 mph - N/A   Clear
4:55 PM 51.8 °F - 17.6 °F 26% 30.13 in 10.0 mi WNW 10.4 mph - N/A   Clear
5:15 PM 50.0 °F - 17.6 °F 28% 30.14 in 10.0 mi West 10.4 mph - N/A   Clear
5:35 PM 50.0 °F - 17.6 °F 28% 30.14 in 10.0 mi West 9.2 mph - N/A   Clear
5:55 PM 48.2 °F - 17.6 °F 30% 30.14 in 10.0 mi West 10.4 mph - N/A   Clear
6:15 PM 48.2 °F - 17.6 °F 30% 30.15 in 10.0 mi Calm Calm - N/A   Clear
6:35 PM 46.4 °F 45.2 °F 15.8 °F 29% 30.15 in 10.0 mi East 3.5 mph - N/A   Clear
6:55 PM 41.0 °F - 14.0 °F 33% 30.16 in 10.0 mi Calm Calm - N/A   Clear
7:15 PM 39.2 °F - 14.0 °F 36% 30.16 in 10.0 mi Calm Calm - N/A   Clear
7:35 PM 37.4 °F 34.9 °F 14.0 °F 38% 30.16 in 10.0 mi SSE 3.5 mph - N/A   Clear
7:55 PM 35.6 °F - 14.0 °F 41% 30.16 in 10.0 mi Calm Calm - N/A   Clear
8:15 PM 33.8 °F - 12.2 °F 41% 30.16 in 10.0 mi Calm Calm - N/A   Clear
8:35 PM 33.8 °F - 14.0 °F 44% 30.17 in 10.0 mi Calm Calm - N/A   Clear
8:55 PM 33.8 °F - 15.8 °F 48% 30.17 in 10.0 mi Calm Calm - N/A   Clear
9:15 PM 33.8 °F - 14.0 °F 44% 30.18 in 10.0 mi Calm Calm - N/A   Clear
9:35 PM 30.2 °F - 12.2 °F 47% 30.18 in 10.0 mi Calm Calm - N/A   Clear
9:55 PM 28.4 °F - 10.4 °F 47% 30.18 in 10.0 mi Calm Calm - N/A   Clear
10:15 PM 28.4 °F - 14.0 °F 55% 30.18 in 10.0 mi Calm Calm - N/A   Clear
10:35 PM 26.6 °F - 12.2 °F 55% 30.18 in 10.0 mi Calm Calm - N/A   Clear
10:55 PM 30.2 °F - 14.0 °F 51% 30.18 in 10.0 mi Calm Calm - N/A   Clear
11:15 PM 28.4 °F 23.3 °F 14.0 °F 55% 30.18 in 10.0 mi WNW 4.6 mph - N/A   Clear
11:35 PM 26.6 °F - 14.0 °F 59% 30.18 in 10.0 mi Calm Calm - N/A   Clear
11:55 PM 28.4 °F 24.6 °F 14.0 °F 55% 30.17 in 10.0 mi NW 3.5 mph - N/A   Clear